Regional Weather Roundup
Issued by NWS Grand Forks, ND

Home | Current Version | Previous Version | Text Only | Print | Product List | Glossary On
Versions: 1 2 3 4 5 6 7 8 9 10 11 12 13 14 15 16 17 18 19 20 21 22 23 24 25 26 27 28 29 30 31 32 33 34 35 36 37 38 39 40 41 42 43 44 45 46 47 48 49 50
000
ASUS43 KFGF 241910
RWRFGF
PRAIRIE TO PINES  WEATHER ROUNDUP
NATIONAL WEATHER SERVICE EASTERN NORTH DAKOTA/GRAND FORKS ND
200 PM CDT SUN SEP 24 2017

 **SATELLITE DATA USED TO AUGMENT SKY COVER AT AUTOMATED STATIONS**
 *****  WEATHER ACROSS EASTERN NORTH DAKOTA  *****

CITY           SKY/WX    TMP DP  RH WIND       PRES   REMARKS
GRAND FORKS    LGT RAIN  53  53 100 N16       29.87F
GRAND FRKS AFB LGT RAIN N/A N/A N/A N14       29.89F
DEVILS LAKE    LGT RAIN  48  46  93 N15       29.96R FOG
FARGO          LGT RAIN  56  56 100 NW12      29.85S
WAHPETON ARPT  CLOUDY    61  57  88 NW8       29.85S
$$

 ***** WEATHER ACROSS CENTRAL AND WESTERN NORTH DAKOTA  *****

CITY           SKY/WX    TMP DP  RH WIND       PRES   REMARKS
BISMARCK       CLOUDY    51  48  89 N14       30.02R
MINOT          CLOUDY    50  45  83 NW14      30.04R
JAMESTOWN      LGT RAIN  50  48  93 N15       29.93R FOG
MINOT AFB      CLOUDY    50  45  81 N14       30.03R
GARRISON         N/A     48  44  86 N14       30.03S
WILLISTON      CLOUDY    48  41  76 N8        30.11S
DICKINSON      CLOUDY    46  43  89 N9        30.06S
HETTINGER      CLOUDY    46  43  89 NW13      30.08R FOG
$$

 *****  OTHER AIRPORT OBSERVATIONS IN OUR AREA  *****

CITY           SKY/WX    TMP DP  RH WIND       PRES   REMARKS
WALHALLA       FAIR     N/A N/A N/A N16G22    29.91R
GRAFTON AIRPOR NOT AVBL
VALLEY CITY AR NOT AVBL
CANDO          MOCLDY    48  48 100 N13       30.00S FOG
CAVALIER APRT  HVY RAIN  50  50 100 N13G22    29.88S VSB 1
GWINNER        CLOUDY    55  54  94 N9G15     29.88R
SHEYENNE NWR     N/A     55  55 100 N7        29.95S
ROLLA          CLOUDY    46  46 100 N17       29.99R
 ***** THE ABOVE OBSERVATIONS ARE NON NWS ARE NOT QUALITY
       CONTROLLED AND MAY MIS-REPORT RAIN FOR SNOW...
$$

  *****  WEATHER ACROSS NORTHERN MINNESOTA  *****

CITY           SKY/WX    TMP DP  RH WIND       PRES   REMARKS
FLAG ISLAND    RAIN      57  55  94 N6        29.82F
WARROAD        NOT AVBL
ROSEAU         LGT RAIN  57  52  82 N8        29.82F
HALLOCK        RAIN      54  52  94 N18       29.84F
THF RVR FALLS  LGT RAIN  57  56  96 W9        29.85R
BAUDETTE       CLOUDY    62  61  96 CALM      29.81F
WASKISH        CLOUDY    68  64  88 CALM      29.82F
CROOKSTON      LGT RAIN  54  54 100 NW13      29.86R
STEPHEN NDAWN    N/A     54  52  94 NW10        N/A
GREENBUSH NDAW   N/A     54  54 100 N7          N/A
$$
  *****  WEATHER ACROSS CENTRAL AND WEST MINNESOTA  *****

CITY           SKY/WX    TMP DP  RH WIND       PRES   REMARKS
FOSSTON        DRIZZLE   61  61 100 CALM      29.83S
BEMIDJI        CLOUDY    72  67  83 S7        29.81F
PARK RAPIDS    PTSUNNY   77  67  71 S14G25    29.83S
ELBOW LAKE     MOCLDY    70  65  83 W8        29.85F HAZE
WADENA         PTSUNNY   75  66  73 SW13G22   29.84S
DETROIT LAKES  CLOUDY    68  63  83 SW13      29.85S
MOORHEAD       LGT RAIN  55  54  94 NW9       29.86R
FERGUS FALLS   CLOUDY    68  66  94 SW9       29.84F
MORRIS MN      NOT AVBL
STAPLES        PTSUNNY   79  64  61 S10G21    29.84S
$$
  *****  WEATHER ELSEWHERE ACROSS MINNESOTA  *****

CITY           SKY/WX    TMP DP  RH WIND       PRES   REMARKS
DULUTH         FAIR      78  68  71 S9        29.91F
INTRNTL FALLS  CLOUDY    72  65  78 SW10      29.82F
ELY            FAIR      81  64  57 S14G21    29.88F
CLOQUET        FAIR      82  63  51 S13       29.90F
WHEATON        FAIR      68  61  77 SW9       29.85F
BRAINERD       FAIR      81  68  64 S13       29.85F
HIBBING        FAIR      80  67  64 S12       29.86F
ALEXANDRIA     RAIN      72  69  90 W16G22    29.86F FOG
SAINT CLOUD    FAIR      84  68  58 S20G26    29.87F
MINNEAPOLIS    PTSUNNY   89  64  43 S18G25    29.90F HX  90
$$

  *****  WEATHER ACROSS SOUTH DAKOTA  *****

CITY           SKY/WX    TMP DP  RH WIND       PRES   REMARKS
SIOUX FALLS    LGT RAIN  70  63  78 W17G29    29.89R
BROOKINGS      CLOUDY    63  61  93 W16       29.90R
WATERTOWN      RAIN      61  59  93 W13       29.89R
HURON          RAIN      55  54  96 NW10      29.93S
SISSETON         N/A     65  60  84 SW10      29.87R
ABERDEEN       LGT RAIN  53  52  96 NW9       29.93R
MITCHELL       LGT RAIN  59  57  93 W10       29.94S
PIERRE         CLOUDY    54  48  80 NW15      29.98S
MOBRIDGE       CLOUDY    54  49  83 N14       29.97R
RAPID CITY     CLOUDY    52  43  71 NW15      30.07R
$$

  *****  SOME WEATHER IN NEARBY STATES *****

CITY           SKY/WX    TMP DP  RH WIND       PRES   REMARKS
GLASGOW MT     CLOUDY    53  38  56 CALM      30.11S
GREAT FALLS MT FAIR      54  30  40 NW3       30.09F
CHEYENNE WY    CLOUDY    43  41  93 NE9       30.03S FOG
SCOTTSBLUFF NE CLOUDY    53  43  68 N9        30.03F
OMAHA NE       PTSUNNY   86  65  49 S23G30    29.89F
DES MOINES IA  FAIR      90  62  39 S17       29.94F HX  90
DAVENPORT IA   FAIR      88  64  44 S9        30.03F
CHICAGO IL     FAIR      91  60  35 S13       30.04F HX  90
EAU CLAIRE WI  FAIR      87  62  43 SW16      29.95F
LA CROSSE WI   FAIR      92  61  35 S12G22    29.96F HX  92
$$

  *****  SOME NATIONAL WEATHER *****

CITY           SKY/WX    TMP DP  RH WIND       PRES   REMARKS
LA GUARDIA NY  FAIR      90  65  43 VRB5      30.03F HX  92
RALEIGH NC     PTSUNNY   86  59  39 NE13      30.03F
ATLANTA GA     PTSUNNY   82  64  54 E12       30.05F
NEW ORLEANS LA FAIR      88  70  55 E13G21    29.91F HX  93
OKLAHOMA CITY  PTSUNNY   86  62  44 S14G23    29.91F
ALBUQUERQUE NM FAIR      68  25  19 VRB7      29.97F
SALT LAKE CITY LGT RAIN  46  42  86 NW7       29.97R
LOS ANGELES CA FAIR      80  48  32 VRB7      29.88F
BOISE ID       FAIR      60  31  33 NW14G29   30.04F
SEATTLE WA     FAIR      64  51  62 CALM      30.15F
$$

*** WEATHER ACROSS MANITOBA...SASKATCHEWAN AND ONTARIO ***
                ***ONTARIO***

CITY           SKY/WX    TMP DP  RH WIND       PRES   REMARKS
GERALDTON      PTSUNNY   70  66  88 E5        29.92F FOG
THUNDER BAY    PTSUNNY   72  66  83 E10       29.91F
SIOUX LOOKOUT  CLOUDY    63  63 100 SE5       29.81F FOG
TORONTO        MOSUNNY   91  66  43 W6        30.10F HX  94
BIG TROUT LK   LGT RAIN  46  46 100 NE8       30.05
PICKLE LAKE    LGT RAIN  52  52 100 E8        29.88F
DRYDEN         FOG       63  61  94 S8        29.82F VSB 1
KENORA         LGT RAIN  55  55 100 N7        29.83F FOG
$$
                *** MANITOBA***

CITY           SKY/WX    TMP DP  RH WIND       PRES   REMARKS
BRANDON        CLOUDY    52  45  76 N13       30.02R
DAUPHIN        CLOUDY    50  48  93 N13       30.04F
ISLAND LAKE    LGT RAIN  45  43  93 NE9       30.08F
PILOT MOUND      N/A     46  45  93 N17G25      N/A
THE PAS        CLOUDY    48  39  71 NE5       30.13F
THOMPSON       LGT RAIN  43  39  87 NE8       30.18F
WINNIPEG       LGT RAIN  50  48  93 N17       29.91F FOG
LYNN LAKE      CLOUDY    45  37  76 SE5       30.18S
CHURCHILL      PTSUNNY   43  28  56 NE6       30.24F
GILLAM         CLOUDY    43  34  70 N9        30.21S
$$
                ***SASKATCHEWAN***

CITY           SKY/WX    TMP DP  RH WIND       PRES   REMARKS
ESTEVAN        CLOUDY    48  43  81 N10       30.08S
KINDERSLEY     MOSUNNY   52  36  54 SW5       30.08F
LLOYDMINSTER   PTSUNNY   54  37  54 S10G18    30.05F
PRINCE ALBERT  PTSUNNY   52  41  66 E3        30.12F
REGINA         PTSUNNY   54  32  43 E5        30.10F
YORKTON        PTSUNNY   52  39  62 N12       30.08F
N. BATTLEFORD  MOSUNNY   54  34  47 SE5       30.10F
LA RONGE       MOSUNNY   54  41  62 SE7       30.11F
SASKATOON      PTSUNNY   55  37  50 SW5       30.10F
SWIFT CURRENT    N/A     52  34  50 S9        30.08F
$$
NOTE: THESE ARE AUTOMATED STATIONS WITH LIMITED QUALITY CONTROL
      "FAIR" INDICATES FEW OR NO CLOUDS BELOW 12,000 FEET WITH NO
      SIGNIFICANT WEATHER AND/OR OBSTRUCTIONS TO VISIBILITY.
      SKY/WX - SKY CONDITION AND SIGNIFICANT WEATHER.
      TMP - AIR TEMPERATURE.    DP   - DEWPOINT TEMPERATURE.
      RH  - RELATIVE HUMIDITY.  PRES - PRESSURE.
      HX  - HEAT INDEX.         WCI  - WIND CHILL INDEX.
$



USA.gov is the U.S. government's official web portal to all federal, state and local government web resources and services.